Regional Weather Roundup
Issued by NWS

Home | Current Version | Previous Version | Graphics & Text | Print | Product List | Glossary On
Versions: 1 2 3 4 5 6 7 8 9 10 11 12 13 14 15 16 17 18 19 20 21 22 23 24 25 26 27 28 29 30 31 32 33 34 35 36 37 38 39 40 41 42 43 44 45 46 47 48 49 50
000
ASUS44 KMEG 231710
RWRTN
TENNESSEE HOURLY STATE WEATHER ROUNDUP
NATIONAL WEATHER SERVICE MEMPHIS TN
1200 PM CDT SAT AUG 23 2014

TNZ002-004-019-021-049-052-054-088>092-231800-
WEST TENNESSEE

CITY           SKY/WX    TMP DP  RH WIND       PRES   REMARKS
MEMPHIS INTL   SUNNY     94  72  48 VRB3      30.01F HX 102
NWS MEMPHIS      N/A     92 N/A N/A MISG        N/A
JACKSON        SUNNY     90  76  63 W5        30.01F HX 101
DYERSBURG      SUNNY     91  72  52 CALM      30.00F HX  98
UNION CITY     PTSUNNY   91  81  70 W3        29.99S HX 110
PARIS          SUNNY     90  77  66 SW6       30.01F HX 102
HUNTINGDON     SUNNY     88  77  69 VRB3      30.00F HX 100
LEXINGTON      SUNNY     93  73  52 W6        30.01S HX 102
SAVANNAH       SUNNY     90  77  66 NW5       30.03F HX 102
$$

TNZ008-025-027-028-033-062-065-066-231800-
NORTH MIDDLE TENNESSEE

CITY           SKY/WX    TMP DP  RH WIND       PRES   REMARKS
NASHVILLE      PTSUNNY   92  73  53 VRB5      30.03S HX 100
DICKSON        MOSUNNY   84  75  74 W7        30.03F HX  92
PORTLAND       MOSUNNY   86  73  66 SW7       30.02S HX  93
CLARKSVILLE    PTSUNNY   89  79  72 S6        29.99F HX 104
LEBANON        MOSUNNY   88  71  56 VRB3      30.02S HX  93
SMYRNA         SUNNY     89  73  59 VRB3      30.03F HX  96
MURFREESBORO   MOSUNNY   88  71  56 CALM      30.02F HX  93
COOKEVILLE     MOSUNNY   90  75  62 CALM      30.04F HX 100
LIVINGSTON     SUNNY     86  68  54 VRB3      30.06F
GALLATIN       MOSUNNY   91  73  55 VRB5      30.03F HX  99
CROSSVILLE     PTSUNNY   83  71  67 VRB5      30.10S
$$

TNZ061-075-076-078-094-096-097-231800-
SOUTH MIDDLE TENNESSEE

CITY           SKY/WX    TMP DP  RH WIND       PRES   REMARKS
LEWISBURG      MOSUNNY   88  74  63 VRB3      30.04S HX  96
FAYETTEVILLE   MOSUNNY   88  73  62 NW7       30.05S HX  96
TULLAHOMA      MOSUNNY   88  72  58 NW9       30.06F HX  94
WINCHESTER     SUNNY     88  73  62 N7        30.05S HX  96
MCMINNVILLE    MOSUNNY   88  75  66 N7        30.05S HX  97
COLUMBIA       SUNNY     90  79  70 N5        30.02F HX 105
SHELBYVILLE    PTSUNNY   90  75  62 NW6       30.05S HX 100
$$

TNZ017-018-042-046-047-231800-
NORTHEAST TENNESSEE

CITY           SKY/WX    TMP DP  RH WIND       PRES   REMARKS
TRI CITIES     PTSUNNY   84  69  60 N5        30.06S
ELIZABETHTON   PTSUNNY   81  70  69 W7        30.06F
$$

TNZ012-013-036-069-073-074-231800-
CENTRAL EAST TENNESSEE

CITY           SKY/WX    TMP DP  RH WIND       PRES   REMARKS
KNOXVILLE      PTSUNNY   88  72  58 CALM      30.02F HX  94
OAK RIDGE      PTSUNNY   89  71  55 VRB5      30.04F HX  95
GATLINBURG     PTSUNNY   88  70  55 N5        30.03S HX  92
MORRISTOWN     SUNNY     84  72  65 VRB5      30.06S
$$

TNZ083-085-099-231800-
SOUTHEAST TENNESSEE

CITY           SKY/WX    TMP DP  RH WIND       PRES   REMARKS
CHATTANOOGA    PTSUNNY   90  72  55 VRB3      30.02F HX  97
$$

SKY/WX REPORTED AS FAIR MEANS FEW OR NO CLOUDS BELOW
12 THOUSAND FEET.




USA.gov is the U.S. government's official web portal to all federal, state and local government web resources and services.